Regional Weather Roundup
Issued by NWS

Home | Current Version | Previous Version | Graphics & Text | Print | Product List | Glossary On
Versions: 1 2 3 4 5 6 7 8 9 10 11 12 13 14 15 16 17 18 19 20 21 22 23 24 25 26 27 28 29 30 31 32 33 34 35 36 37 38 39 40 41 42 43 44 45 46 47 48 49 50
000
ASUS43 KLSX 040007
RWRMO

WEATHER SUMMARY FOR MISSOURI
NATIONAL WEATHER SERVICE SPRINGFIELD MO
700 PM CDT THU SEP 03 2015

NOTE: "FAIR" INDICATES FEW OR NO CLOUDS BELOW 12,000 FEET WITH NO
       SIGNIFICANT WEATHER AND/OR OBSTRUCTIONS TO VISIBILITY.
       CURRENT SKY AND/OR WEATHER CONDITIONS ARE NOT AVAILABLE FOR
       CHILLICOTHE AND FARMINGTON.

MOZ001>031-035>038-043-044-053-054-040100-
...NORTHERN AND WESTERN MISSOURI...

CITY           SKY/WX    TMP DP  RH WIND       PRES   REMARKS
KANSAS CTY INT PTCLDY    86  68  54 S9        29.88S
6HR MIN TEMP:  86; 6HR MAX TEMP:  93;

KANSAS C DTWN  CLEAR     88  67  49 S10       29.86F HX  91
6HR MIN TEMP:  88; 6HR MAX TEMP:  92;

LEE`S SUMMIT   CLEAR     86  66  51 S9        29.90S
6HR MIN TEMP:  86; 6HR MAX TEMP:  90;

ST JOSEPH      CLEAR     85  70  60 S12       29.86R
6HR MIN TEMP:  85; 6HR MAX TEMP:  90;

CHILLICOTHE      N/A     87  70  56 S5        29.89S HX  92
6HR MIN TEMP:  87; 6HR MAX TEMP:  93;

KIRKSVILLE     CLEAR     85  70  60 S5        29.91S
6HR MIN TEMP:  85; 6HR MAX TEMP:  92;


$$
MOZ066>068-077>081-088>096-101>105-040100-
...SOUTHWEST MISSOURI...

CITY           SKY/WX    TMP DP  RH WIND       PRES   REMARKS
SPRINGFIELD    CLEAR     85  68  56 S5        29.94S
6HR MIN TEMP:  85; 6HR MAX TEMP:  90;

JOPLIN         CLEAR     85  70  60 SW7       29.92F
6HR MIN TEMP:  85; 6HR MAX TEMP:  88;


$$
MOZ032>034-039>042-045>050-055>058-069>072-040100-
...CENTRAL MISSOURI...

CITY           SKY/WX    TMP DP  RH WIND       PRES   REMARKS
COLUMBIA       CLEAR     86  70  58 CALM      29.92F HX  90
6HR MIN TEMP:  86; 6HR MAX TEMP:  91;

JEFFERSON CITY PTCLDY    90  67  46 SW3       29.90S HX  93
6HR MIN TEMP:  89; 6HR MAX TEMP:  93;

ROLLA          CLEAR     85  68  56 S7        29.94S
6HR MIN TEMP:  85; 6HR MAX TEMP:  93;

SEDALIA        CLEAR     87  66  49 S6        29.92S
6HR MIN TEMP:  87; 6HR MAX TEMP:  94;

WHITEMAN AFB   PTCLDY    88  67  50 SW10      29.90R HX  91
WARRENSBURG    CLEAR     86  66  51 S5        29.90S
OSAGE BEACH    MOCLDY    88  66  48 S5        29.93S HX  90

$$
MOZ051-052-059>065-040100-
...EAST CENTRAL MISSOURI...

CITY           SKY/WX    TMP DP  RH WIND       PRES   REMARKS
ST LOUIS INTL  PTCLDY    90  65  43 S7        29.92S HX  92
6HR MIN TEMP:  90; 6HR MAX TEMP:  94;

SPIRIT OF STL  PTCLDY    83  75  77 CALM      29.90F HX  90
6HR MIN TEMP:  83; 6HR MAX TEMP:  92;

ST CHARLES     CLEAR     88  70  55 SW3       29.90S HX  93
6HR MIN TEMP:  88; 6HR MAX TEMP:  93;


$$
MOZ072>076-082>087-097>100-106>115-040100-
...SOUTH CENTRAL AND SOUTHEAST MISSOURI...

CITY           SKY/WX    TMP DP  RH WIND       PRES   REMARKS
CAPE GIRARDEAU CLEAR     86  70  58 SE3       29.92S HX  90
6HR MIN TEMP:  86; 6HR MAX TEMP:  93;

FARMINGTON     CLEAR     84  73  70 S3        29.97S HX  91
6HR MIN TEMP:  84; 6HR MAX TEMP:  90;

POPLAR BLUFF   CLEAR     85  72  65 CALM      29.91F HX  91
6HR MIN TEMP:  85; 6HR MAX TEMP:  90;

WEST PLAINS    CLEAR     84  67  56 CALM      29.97F
6HR MIN TEMP:  84; 6HR MAX TEMP:  89;


$$



USA.gov is the U.S. government's official web portal to all federal, state and local government web resources and services.